Wind_Speed
38 37 36 35 35 35 34 33 31 29 28 28 28 27 26 25 24 23 22 21 20 20 19 19 18 18 17 17 17 16 16 15 15 14 14 14 13 13 12 12 11 11 10 10 10 9 9 9 9
40 39 38 37 37 36 34 32 31 30 30 30 29 28 28 26 25 24 23 22 21 21 20 20 19 19 18 18 18 18 17 17 17 16 16 16 15 15 14 14 14 13 13 12 12 12 12 11 11
42 41 40 39 38 35 34 32 31 30 30 30 30 30 29 28 27 26 25 24 23 22 22 21 21 21 20 20 20 19 19 19 19 19 18 18 17 17 17 16 16 16 15 15 14 14 14 14 13
43 42 42 41 39 37 35 32 31 31 31 31 30 30 30 29 28 27 26 25 25 24 23 23 23 23 23 22 22 22 22 21 21 21 21 20 20 20 19 19 18 18 18 17 17 17 16 16 16
43 44 43 42 40 38 36 33 32 31 31 31 30 30 30 29 28 28 27 26 26 25 25 25 24 25 25 24 24 24 24 23 23 23 23 23 22 22 22 21 21 21 20 20 20 20 19 19 18
43 44 44 42 41 39 38 36 34 33 32 32 31 30 30 29 29 28 28 27 26 26 26 26 26 26 27 27 26 26 26 25 25 25 25 25 25 24 24 24 23 23 23 23 22 22 22 22 21
43 43 43 42 41 40 39 37 36 35 34 33 32 32 31 30 29 29 28 28 28 27 27 28 28 28 28 28 28 28 28 28 28 28 28 28 27 27 27 27 26 26 25 25 25 25 25 24 24
43 43 43 42 41 40 39 38 37 36 35 34 33 33 32 31 31 30 30 30 30 29 29 29 29 30 29 29 29 30 30 30 30 30 30 30 30 30 29 29 29 29 29 28 28 28 28 27 27
43 43 42 41 40 39 39 38 37 36 36 35 34 33 33 32 31 31 32 32 32 32 31 31 31 31 31 31 31 31 31 31 31 31 31 31 32 31 31 31 31 31 31 31 31 31 31 30 30
42 42 41 40 40 39 38 38 37 36 37 37 36 35 34 33 33 33 33 33 33 33 33 33 32 32 32 32 32 32 32 32 32 33 33 33 34 34 34 33 33 33 33 33 33 33 33 33 32
39 40 40 40 39 38 38 38 37 37 37 37 36 36 35 34 35 35 34 34 34 34 34 34 33 33 33 33 34 34 34 34 34 35 35 35 35 35 35 35 35 35 35 36 36 35 35 35 35
37 38 38 39 38 38 38 38 38 38 37 36 37 37 36 36 35 35 35 35 35 35 35 35 36 35 35 35 35 35 36 36 37 37 37 37 37 37 37 37 37 37 38 38 38 38 38 38 37
36 36 37 37 38 38 37 38 37 37 37 36 36 37 36 36 36 36 36 36 35 36 36 37 37 37 37 37 37 37 37 38 38 39 40 40 39 39 40 40 40 40 40 40 41 41 41 41 41
33 34 35 36 36 36 36 36 36 36 36 36 36 36 37 36 36 36 36 36 36 37 37 37 37 37 37 38 38 37 37 38 39 40 41 41 42 42 43 43 43 43 43 43 43 43 43 43 44
32 32 33 34 34 34 34 35 35 35 35 35 35 36 36 36 36 36 36 36 36 36 37 37 37 37 37 36 37 37 38 38 39 39 40 41 42 43 43 44 44 44 44 44 43 44 44 44 45
29 30 30 31 31 32 33 34 34 34 34 34 34 35 35 35 35 35 35 36 36 36 36 36 37 37 37 37 37 37 38 39 39 39 40 41 41 42 42 43 43 44 44 44 44 44 45 45 46
28 29 29 29 30 30 32 32 33 33 34 34 34 34 35 35 35 35 35 35 35 35 36 36 36 37 37 37 37 37 38 38 39 40 40 41 42 42 43 43 43 43 43 44 44 45 45 45 45
26 27 27 27 28 29 30 31 32 32 33 33 34 34 34 34 35 35 35 34 35 35 36 36 36 36 36 36 37 37 38 39 40 40 41 42 43 43 43 42 42 42 43 43 44 45 46 46 46
23 24 25 26 26 27 29 29 30 31 32 32 32 33 34 35 35 35 34 34 34 34 35 36 37 37 37 37 37 38 38 38 38 39 39 40 42 42 42 42 43 43 44 44 45 45 46 46 47
21 22 23 24 25 26 27 28 29 30 31 32 32 33 33 33 34 34 34 34 34 34 35 35 36 37 37 37 37 37 37 37 37 37 38 39 40 41 42 43 44 45 45 45 46 47 47 47 47
18 19 20 22 23 24 25 26 27 28 30 30 31 32 33 33 33 34 34 34 34 34 34 34 35 36 37 37 36 37 37 36 36 37 38 38 39 39 40 42 44 45 46 46 46 47 48 49 49
14 15 17 19 21 22 24 25 25 26 28 29 30 31 32 33 34 35 34 34 34 34 34 34 35 35 35 36 36 36 36 37 37 38 38 38 39 40 40 41 43 45 46 47 48 48 48 48 49
10 12 14 16 18 20 22 24 23 25 26 27 28 30 31 32 33 33 33 33 33 34 34 34 34 34 35 35 35 36 36 36 37 37 37 38 38 39 40 41 43 44 45 46 47 47 48 48 48
9 10 12 13 15 17 18 21 22 23 24 25 26 28 30 31 32 32 33 33 33 33 33 33 33 33 34 34 35 35 35 35 36 37 37 37 38 38 39 41 41 42 43 44 45 46 46 47 47
8 9 11 12 14 15 16 18 19 20 22 24 25 27 28 29 30 31 32 32 32 32 32 32 32 32 32 33 33 34 34 35 35 36 36 36 37 38 39 40 40 40 41 43 45 45 45 46 47
8 9 10 11 12 13 14 15 16 18 20 22 24 25 27 28 29 30 30 31 32 31 32 31 31 31 31 30 30 31 32 33 34 34 35 36 36 38 39 39 39 39 40 42 43 44 44 45 46
8 9 10 11 11 12 13 14 15 17 18 20 21 23 24 25 26 28 29 29 30 29 30 30 30 30 30 29 29 30 31 32 33 33 33 34 35 36 37 37 38 39 39 40 41 42 43 44 45
8 9 10 11 12 12 12 12 14 15 17 18 19 20 21 23 24 26 27 27 27 28 28 29 29 30 30 30 30 30 31 31 32 33 33 33 33 34 34 35 36 37 37 38 38 39 40 42 43
8 10 11 11 12 12 12 12 13 14 15 16 18 19 20 21 22 24 25 26 26 27 27 28 29 29 29 30 30 31 31 31 31 32 32 32 33 33 33 33 34 35 35 36 37 37 39 40 41
9 10 11 11 11 12 14 14 14 14 15 17 18 19 20 20 21 22 23 24 25 26 27 27 28 28 28 28 28 29 30 30 30 30 31 32 33 33 33 33 33 33 34 36 36 37 37 38 38
Wind_Direction
232 232 233 234 235 236 237 237 238 238 238 238 237 238 239 239 240 242 243 243 243 244 245 245 245 245 245 247 248 250 250 252 252 252 253 254 255 256 256 256 256 256 257 256 256 256 256 257 259
231 231 232 233 234 236 237 238 238 238 238 238 237 237 238 240 240 242 242 242 242 244 244 245 246 247 247 248 248 250 251 253 255 255 255 256 256 257 258 259 259 260 260 260 260 261 261 261 261
231 231 232 233 233 235 237 237 238 238 238 238 237 237 238 240 240 241 242 242 243 244 245 246 247 249 250 250 250 251 252 254 255 257 258 259 259 259 259 259 260 261 262 262 261 262 263 263 264
231 231 231 232 233 234 236 236 237 238 238 238 237 238 239 240 241 242 242 243 243 245 246 247 249 251 253 253 253 254 255 255 256 258 260 261 261 261 262 262 261 261 262 262 262 262 264 265 265
230 231 231 232 232 233 234 235 236 237 237 238 238 238 239 239 240 241 243 244 245 246 248 249 250 252 254 255 256 257 257 258 258 259 261 262 262 263 263 263 263 263 262 263 263 263 264 265 265
231 231 232 233 233 233 233 234 235 236 236 236 237 238 238 239 240 241 243 245 246 247 248 250 252 253 255 256 257 258 259 260 260 260 261 262 263 263 263 263 263 264 264 264 264 265 265 266 266
230 231 232 232 233 233 233 234 234 235 236 236 237 238 239 239 240 241 244 245 247 248 250 252 254 255 257 258 259 260 261 261 262 263 263 263 263 263 263 262 262 263 263 264 265 265 266 266 266
229 230 231 231 232 233 233 234 234 235 236 237 238 239 238 239 241 243 245 247 249 251 252 254 256 257 258 259 260 261 262 262 262 263 263 263 263 263 263 263 262 262 263 263 264 264 265 266 266
228 229 230 230 231 232 232 233 234 235 236 236 237 239 240 240 242 244 246 248 250 252 254 255 256 257 258 259 260 261 262 263 263 263 263 263 263 263 264 263 263 263 263 263 263 264 264 265 266
228 229 229 230 231 232 232 233 234 235 237 237 238 239 241 241 243 245 247 250 251 253 255 256 256 257 258 259 259 260 262 263 264 264 264 264 264 264 264 264 264 264 264 264 264 264 264 264 265
227 229 229 230 230 231 232 233 234 235 237 240 239 240 242 243 244 246 248 251 252 254 255 256 257 258 259 260 260 261 262 262 263 264 266 265 265 265 265 264 264 264 264 264 264 265 265 265 265
226 228 228 229 230 231 232 233 234 235 237 240 240 240 241 243 245 246 248 251 253 254 255 257 258 259 260 261 261 262 263 263 263 264 265 265 266 266 266 266 265 265 265 265 265 265 265 265 265
226 228 229 230 230 231 232 233 234 236 237 238 239 240 241 243 245 248 250 251 253 254 256 257 259 260 260 261 262 263 264 264 264 264 264 264 265 266 266 267 267 266 266 266 265 265 265 265 265
225 226 228 230 231 231 232 233 234 235 236 237 239 240 241 244 246 248 249 251 252 254 256 257 259 260 261 262 263 264 264 265 265 265 266 266 266 267 267 267 267 266 267 266 266 266 266 265 265
224 225 227 230 231 231 232 232 233 235 236 237 239 241 243 244 246 248 250 251 254 255 256 258 259 260 261 262 264 265 266 266 267 267 267 267 268 268 268 267 267 266 266 266 266 266 266 266 265
222 223 226 228 229 231 232 234 235 235 236 237 239 242 244 245 247 248 250 252 254 256 257 258 259 260 262 263 265 266 267 268 268 268 268 269 270 270 270 268 267 267 266 266 266 266 266 266 266
222 224 226 228 230 233 234 235 236 236 236 238 241 243 245 246 248 249 251 253 255 256 258 259 260 261 263 264 266 267 268 268 269 269 270 270 270 270 270 269 268 267 266 265 265 265 265 266 266
224 226 228 230 231 233 235 236 237 238 238 240 242 244 245 247 248 250 252 254 257 258 260 261 262 263 263 265 267 268 269 269 270 270 270 270 270 270 269 269 268 268 267 266 265 265 264 265 266
225 228 231 234 235 237 238 239 240 240 240 241 243 244 245 247 249 252 254 256 258 260 261 263 263 264 264 266 268 269 269 269 269 270 271 270 270 269 268 268 268 267 268 268 267 267 266 265 266
227 230 234 237 237 239 240 241 241 242 243 243 244 246 248 250 251 253 255 257 259 261 263 264 264 265 266 268 269 269 268 268 269 270 272 272 272 270 268 268 267 267 268 268 268 268 266 266 266
229 232 236 238 239 239 240 242 243 244 245 246 246 248 250 252 253 255 257 258 260 261 263 265 265 266 267 268 268 268 267 268 270 271 272 273 272 272 271 269 268 267 268 268 269 268 268 266 266
228 234 238 241 241 241 243 245 244 246 247 248 249 250 252 253 255 257 258 259 260 261 264 265 266 267 268 268 268 269 269 270 271 272 273 274 274 273 272 271 270 269 269 268 268 268 268 267 267
235 239 242 245 247 247 247 249 246 248 250 251 252 252 253 255 256 257 258 259 261 263 264 266 267 268 268 269 269 269 270 272 272 274 274 275 275 275 274 274 273 271 270 269 268 268 268 268 268
243 245 247 249 249 250 251 253 252 250 252 254 254 255 255 255 256 257 258 260 262 263 264 266 267 268 268 269 270 270 270 272 273 274 275 276 276 277 276 276 276 275 273 270 269 268 268 267 268
250 251 253 256 256 258 257 258 258 255 253 255 258 259 258 257 258 259 260 262 263 264 265 266 267 268 269 270 270 271 272 273 275 275 276 277 277 277 277 277 276 275 275 273 271 269 269 268 268
251 251 253 258 261 262 260 259 261 260 259 258 260 260 260 260 260 260 261 263 264 265 265 265 267 269 271 271 273 274 275 275 276 277 278 278 279 278 278 278 276 275 275 274 272 269 269 270 269
253 254 256 261 263 265 263 262 262 262 262 262 262 262 260 260 261 261 262 263 263 263 264 264 267 270 271 272 274 276 276 277 278 280 280 280 280 280 279 278 277 276 276 275 274 272 271 271 271
267 269 267 268 273 274 268 268 268 265 266 267 265 264 262 263 264 265 264 264 263 264 264 265 267 269 271 272 274 276 279 280 281 281 281 282 282 282 281 281 279 278 278 278 277 275 274 273 272
278 278 278 277 277 278 277 277 274 272 268 267 266 265 265 265 266 266 264 264 264 264 266 268 270 271 272 273 275 276 278 281 282 282 282 282 283 282 282 282 281 281 281 280 279 278 276 275 274
285 284 282 280 280 281 283 284 281 278 273 271 270 269 269 269 269 269 268 266 266 266 267 269 271 271 272 273 275 276 278 280 281 282 283 284 284 283 282 283 283 283 282 282 281 280 279 277 276
Height
5819 5823 5825 5828 5831 5833 5836 5840 5843 5846 5847 5849 5851 5853 5855 5858 5860 5863 5864 5864 5865 5866 5867 5868 5869 5870 5871 5872 5873 5873 5874 5875 5875 5876 5876 5876 5877 5877 5877 5877 5877 5877 5877 5877 5877 5877 5877 5876 5876
5811 5815 5818 5821 5824 5827 5831 5834 5838 5840 5842 5844 5846 5848 5850 5852 5855 5857 5858 5859 5861 5862 5863 5865 5866 5867 5868 5869 5870 5870 5871 5872 5872 5873 5873 5874 5874 5874 5875 5875 5875 5875 5875 5875 5875 5875 5875 5874 5874
5803 5807 5811 5814 5817 5822 5826 5829 5832 5834 5836 5838 5840 5843 5845 5848 5850 5852 5854 5855 5857 5858 5860 5861 5862 5863 5864 5865 5866 5867 5868 5869 5869 5870 5870 5871 5871 5871 5872 5872 5872 5872 5872 5872 5872 5872 5872 5872 5872
5795 5799 5802 5807 5811 5816 5819 5823 5825 5828 5830 5832 5835 5838 5840 5843 5845 5847 5849 5851 5853 5854 5856 5857 5858 5860 5861 5862 5863 5863 5864 5865 5866 5866 5867 5867 5868 5868 5869 5869 5869 5869 5869 5869 5869 5869 5869 5869 5869
5785 5790 5794 5799 5804 5808 5812 5816 5819 5822 5824 5827 5830 5832 5835 5838 5840 5842 5844 5846 5848 5850 5851 5853 5854 5855 5856 5857 5858 5859 5860 5861 5862 5862 5863 5863 5864 5864 5865 5865 5865 5866 5866 5866 5866 5866 5866 5866 5866
5777 5782 5787 5792 5797 5801 5805 5809 5812 5815 5818 5821 5824 5827 5830 5832 5835 5837 5839 5841 5843 5845 5846 5848 5849 5850 5851 5852 5853 5855 5855 5856 5857 5858 5858 5859 5859 5860 5860 5861 5861 5861 5862 5862 5862 5862 5862 5862 5862
5770 5774 5779 5785 5789 5794 5799 5802 5806 5809 5812 5815 5818 5821 5824 5827 5829 5832 5834 5836 5838 5839 5841 5842 5844 5845 5846 5847 5848 5849 5850 5851 5851 5852 5853 5853 5854 5854 5855 5855 5856 5856 5857 5857 5857 5857 5857 5857 5857
5761 5767 5772 5777 5782 5787 5791 5795 5799 5802 5806 5809 5812 5816 5819 5822 5824 5826 5828 5830 5832 5834 5836 5837 5838 5839 5840 5841 5842 5843 5844 5845 5846 5846 5847 5848 5848 5848 5849 5850 5850 5851 5851 5851 5852 5852 5852 5852 5852
5753 5760 5765 5770 5775 5780 5784 5788 5792 5795 5799 5802 5806 5810 5813 5816 5818 5820 5822 5824 5826 5828 5830 5831 5832 5833 5834 5835 5836 5837 5838 5838 5839 5840 5840 5841 5842 5842 5843 5843 5844 5844 5845 5845 5846 5846 5847 5846 5847
5746 5752 5758 5763 5768 5772 5777 5781 5785 5789 5792 5796 5800 5803 5806 5809 5812 5814 5816 5818 5820 5822 5823 5824 5826 5827 5828 5829 5829 5830 5831 5832 5832 5833 5833 5834 5834 5835 5836 5836 5837 5838 5838 5838 5839 5839 5840 5840 5840
5740 5746 5752 5756 5761 5765 5770 5774 5778 5782 5786 5790 5794 5797 5800 5803 5805 5808 5810 5812 5814 5815 5816 5818 5819 5820 5821 5822 5822 5823 5824 5824 5825 5825 5826 5826 5827 5828 5828 5829 5830 5830 5830 5831 5831 5832 5832 5833 5833
5735 5740 5745 5749 5754 5759 5763 5767 5771 5775 5780 5783 5786 5790 5793 5796 5799 5801 5803 5805 5807 5808 5809 5810 5811 5813 5813 5814 5815 5815 5816 5817 5817 5818 5818 5818 5819 5820 5820 5821 5821 5822 5822 5823 5823 5824 5824 5825 5826
5730 5734 5739 5743 5748 5752 5756 5761 5765 5769 5773 5776 5779 5783 5786 5789 5792 5794 5796 5798 5800 5801 5802 5803 5804 5805 5806 5806 5807 5807 5808 5808 5809 5809 5810 5810 5811 5811 5811 5812 5812 5813 5813 5814 5815 5815 5816 5816 5817
5725 5729 5733 5738 5742 5746 5750 5754 5759 5762 5766 5770 5773 5776 5780 5782 5785 5787 5789 5791 5792 5793 5794 5796 5797 5797 5798 5798 5799 5799 5800 5800 5800 5800 5800 5801 5801 5802 5802 5802 5803 5803 5804 5804 5805 5805 5806 5806 5807
5720 5725 5729 5732 5737 5741 5745 5749 5753 5756 5760 5764 5767 5770 5773 5775 5778 5780 5782 5783 5785 5786 5787 5788 5789 5789 5790 5790 5791 5791 5791 5791 5791 5791 5791 5791 5791 5792 5792 5792 5793 5793 5794 5794 5795 5795 5796 5796 5797
5716 5721 5725 5728 5732 5736 5741 5744 5747 5750 5754 5757 5760 5763 5766 5769 5771 5773 5775 5776 5777 5778 5779 5780 5781 5782 5782 5782 5783 5783 5783 5782 5782 5782 5782 5782 5782 5782 5782 5782 5782 5782 5783 5784 5785 5785 5786 5786 5786
5713 5717 5721 5725 5728 5731 5735 5739 5742 5745 5748 5751 5754 5757 5759 5762 5764 5766 5767 5769 5770 5771 5772 5772 5773 5773 5774 5774 5774 5774 5774 5773 5773 5773 5773 5772 5772 5772 5771 5771 5772 5772 5772 5773 5774 5775 5775 5775 5775
5711 5714 5718 5721 5724 5727 5730 5734 5737 5739 5742 5745 5748 5750 5752 5755 5757 5758 5760 5762 5763 5763 5764 5764 5765 5765 5765 5765 5765 5765 5765 5764 5764 5763 5763 5762 5762 5761 5761 5761 5761 5761 5762 5763 5763 5763 5764 5765 5765
5708 5711 5714 5717 5720 5723 5726 5729 5732 5734 5736 5739 5741 5744 5746 5748 5749 5751 5753 5754 5755 5756 5756 5756 5756 5757 5757 5757 5757 5756 5756 5755 5755 5754 5753 5752 5751 5751 5750 5751 5751 5751 5751 5752 5752 5752 5753 5753 5754
5706 5709 5711 5714 5716 5719 5721 5724 5726 5728 5731 5733 5736 5738 5739 5741 5742 5744 5746 5747 5748 5748 5748 5748 5748 5748 5748 5748 5748 5747 5747 5747 5746 5745 5744 5743 5742 5741 5740 5740 5740 5740 5740 5740 5741 5741 5741 5742 5742
5703 5706 5708 5711 5713 5714 5717 5720 5722 5723 5725 5728 5730 5731 5733 5735 5736 5737 5739 5739 5740 5740 5740 5740 5740 5740 5740 5739 5739 5739 5738 5738 5737 5736 5735 5733 5732 5730 5729 5729 5729 5729 5728 5729 5729 5729 5729 5730 5730
5701 5703 5705 5707 5709 5711 5713 5715 5718 5718 5720 5722 5724 5725 5727 5728 5729 5730 5731 5732 5732 5732 5732 5732 5732 5732 5731 5731 5730 5730 5730 5729 5728 5727 5725 5724 5722 5720 5719 5718 5717 5717 5717 5717 5717 5717 5717 5717 5718
5700 5701 5703 5704 5706 5708 5709 5710 5714 5713 5715 5716 5718 5719 5720 5721 5722 5723 5723 5724 5724 5725 5725 5724 5724 5723 5723 5722 5722 5721 5720 5720 5719 5717 5716 5714 5712 5710 5709 5707 5706 5705 5705 5704 5704 5704 5705 5705 5705
5698 5700 5700 5701 5703 5705 5706 5706 5708 5709 5710 5710 5711 5712 5713 5714 5715 5715 5716 5716 5717 5717 5717 5716 5716 5715 5715 5714 5713 5712 5712 5711 5710 5708 5706 5704 5702 5700 5698 5696 5695 5694 5693 5692 5692 5692 5693 5693 5693
5697 5698 5699 5699 5700 5701 5701 5702 5704 5704 5704 5704 5705 5705 5706 5707 5707 5707 5708 5709 5709 5709 5709 5708 5708 5708 5707 5706 5705 5704 5703 5702 5700 5699 5697 5695 5693 5691 5688 5686 5685 5683 5682 5681 5680 5681 5681 5681 5681
5694 5696 5697 5697 5697 5698 5697 5697 5699 5698 5698 5698 5698 5699 5699 5699 5700 5700 5701 5701 5701 5701 5701 5701 5700 5700 5699 5698 5697 5695 5694 5693 5692 5690 5688 5686 5684 5681 5679 5677 5675 5673 5672 5670 5669 5669 5669 5669 5668
5693 5693 5694 5694 5694 5694 5694 5694 5694 5693 5693 5692 5692 5692 5692 5693 5693 5693 5693 5693 5693 5694 5693 5693 5693 5692 5691 5690 5689 5688 5686 5685 5683 5681 5679 5677 5674 5672 5669 5667 5665 5664 5662 5660 5658 5658 5657 5657 5656
5691 5691 5691 5691 5690 5690 5690 5690 5690 5688 5688 5687 5687 5687 5686 5686 5686 5686 5686 5686 5686 5686 5686 5685 5685 5684 5683 5682 5681 5680 5678 5676 5674 5672 5670 5668 5665 5663 5660 5658 5656 5654 5652 5650 5648 5647 5646 5645 5644
5689 5689 5688 5687 5687 5686 5686 5688 5686 5684 5683 5682 5682 5681 5680 5680 5680 5679 5679 5679 5679 5678 5678 5678 5677 5676 5676 5674 5673 5672 5670 5669 5666 5664 5662 5659 5657 5654 5652 5649 5647 5645 5643 5641 5639 5637 5635 5634 5633
5686 5685 5685 5685 5684 5682 5682 5685 5681 5679 5678 5677 5676 5675 5674 5674 5673 5672 5672 5672 5671 5671 5671 5670 5670 5669 5668 5667 5665 5664 5662 5661 5659 5656 5654 5651 5648 5646 5643 5641 5638 5636 5634 5631 5629 5627 5625 5624 5622